#timestamp,LO_Frequency,Hit,StdDev 
1521288015.6,286047001.3,N
1521288035.5,286047002.0,N
1521288055.3,286047002.7,N
1521288075.2,286047002.3,N
1521288095.9,286047002.3,N
1521288115.7,286047003.7,N
1521288135.6,286047003.5,N
1521288155.4,286047003.8,N
1521288175.3,286047001.7,N
1521288195.1,286047002.6,N
1521288196.0,286047002.6,N
1521288215.8,286047002.4,N
1521288235.7,286047000.2,N
1521288255.5,286046998.3,N
1521288275.3,286046998.8,N
1521288295.2,286047000.5,N
1521288315.0,286046998.3,N
1521288315.9,286046998.3,N
1521288335.8,286046998.5,N
1521288355.6,286046999.1,N
1521288375.4,286046998.8,N
1521288395.3,286046999.4,N
1521288415.1,286046998.8,N
1521288435.9,286046998.8,N
1521288455.7,286046998.3,N
1521288475.5,286046998.8,N
1521288495.4,286046999.2,N
1521288515.2,286046996.9,N
1521288535.0,286046999.7,N
1521288535.9,286046999.7,N
1521288555.8,286047001.9,N
1521288575.6,286047002.4,N
1521288595.5,286046998.1,N
1521288645.3,286046998.1,E
1521288655.2,286047002.4,N
1521288675.1,286047001.7,P
1521288676.0,286047001.7,P
1521288695.8,286047002.3,Y
1521288715.7,286046998.8,P
1521288735.5,286047002.7,N
1521288755.3,286047000.0,N
1521288775.2,286047000.5,N
1521288795.0,286047000.6,N
1521288795.9,286047000.6,N
1521288815.8,286047002.4,N
1521288835.6,286047000.3,N
1521288855.4,286047000.0,N
1521288875.3,286047000.6,N
1521288895.1,286047000.0,N
1521288915.8,286047000.9,N
1521288935.7,286047000.1,N
1521288955.5,286047000.6,N
1521288975.4,286047002.6,N
1521288995.2,286046999.8,N
1521289015.0,286047000.2,N
1521289015.9,286047000.2,N
1521289035.8,286047002.2,N
1521289055.6,286047003.9,Y
1521289075.5,286047000.3,P
1521289095.3,286046999.9,N
1521289115.1,286047001.6,P
1521289135.9,286047007.3,Y
1521289155.7,286047006.0,P
1521289175.5,286047003.2,N
1521289195.4,286047002.6,N
1521289215.2,286047002.3,N
1521289235.1,286047001.3,N
1521289236.0,286047001.3,N
1521289255.8,286047011.9,Y
1521289275.6,286047003.9,P
1521289295.5,286047002.4,P
1521289315.3,286047000.1,N
1521289335.2,286047000.2,N
1521289355.9,286047000.1,N
1521289375.7,286046999.7,N
1521289395.6,286046999.8,N
1521289415.4,286047000.3,N
1521289435.2,286047000.1,N
1521289455.1,286047002.2,N
1521289456.0,286047002.2,N
1521289475.8,286046998.4,N
1521289495.7,286047000.3,N
1521289515.5,286047000.5,N
1521289535.3,286047001.7,N
1521289555.2,286047000.7,N
1521289575.0,286046996.5,N
1521289575.9,286046996.5,N
1521289595.7,286046997.4,N
1521289615.6,286046997.2,N
1521289635.4,286046996.7,N
1521289655.3,286046998.0,N
1521289675.1,286046999.0,N
1521289676.0,286046999.0,N
1521289695.8,286047000.4,N
1521289715.7,286047000.0,N
1521289735.5,286047000.4,N
1521289755.3,286047000.6,N
1521289775.2,286047000.7,N
1521289795.0,286046996.8,N
1521289795.9,286046996.8,N
1521289815.8,286046998.1,N
1521289835.6,286047002.5,N
1521289855.4,286047000.4,N
1521289875.3,286046996.9,N
1521289895.1,286046999.1,N
1521289915.9,286046998.3,N
1521289935.7,286047000.9,N
1521289955.5,286046998.3,N
1521289975.4,286046998.6,N
1521289995.2,286046996.9,N
1521290015.0,286046998.3,N
1521290015.9,286046998.3,N
1521290035.8,286046999.3,N
1521290055.6,286046997.7,N
1521290075.5,286046997.6,N
1521290095.3,286046996.1,N
1521290115.1,286046995.5,N
1521290135.9,286046997.6,N
1521290155.7,286046995.1,Y
1521290175.5,286046996.6,P
1521290195.4,286046999.6,N
1521290215.2,286046999.4,N
1521290235.1,286047000.0,N
1521290236.0,286047000.0,N
1521290255.8,286047002.3,N
1521290275.6,286046999.7,N
1521290295.5,286047000.1,N
1521290315.3,286046998.8,N
1521290335.2,286046998.7,N
1521290355.9,286046999.5,N
1521290375.7,286046998.9,N
1521290395.6,286046996.9,N
1521290415.4,286046997.4,N
1521290435.2,286046997.3,N
1521290455.1,286046995.3,Y
1521290456.0,286046995.3,P
1521290475.8,286046996.7,N
1521290495.7,286046999.3,N
1521290515.5,286046999.5,N
1521290535.3,286046999.3,N
1521290555.2,286046998.5,N
1521290575.0,286046999.7,N
1521290575.9,286046999.7,N
1521290595.8,286046998.6,N
1521290615.6,286047001.0,N
1521290635.4,286046998.7,N
1521290655.3,286047001.1,N
1521290675.1,286046998.8,N
1521290695.8,286046998.2,N
1521290715.7,286046998.2,N
1521290735.5,286046998.4,N
1521290755.4,286047000.9,N
1521290775.2,286046998.3,N
1521290795.0,286046998.5,N
1521290795.9,286046998.5,N
1521290815.8,286046998.5,N
1521290835.6,286046998.5,N
1521290855.4,286047002.2,N
1521290875.3,286046999.9,N
1521290895.1,286047001.6,N
1521290915.9,286047004.3,N
1521290935.7,286047002.4,N
1521290955.5,286047000.9,N
1521290975.4,286047004.4,N
1521290995.2,286047002.4,N
1521291015.1,286046999.9,N
1521291016.0,286046999.9,N
1521291035.8,286047000.4,N
1521291055.6,286046998.1,N
1521291075.5,286047000.7,N
1521291095.3,286047000.7,N
1521291115.1,286047000.2,N
1521291135.9,286047002.5,N
1521291155.7,286047002.0,N
1521291175.6,286047002.2,N
1521291195.4,286047000.3,N
1521291215.2,286046998.4,N
1521291235.1,286046998.3,N
1521291236.0,286046998.3,N
1521291255.8,286047002.4,N
1521291275.6,286047002.6,N
1521291295.5,286047001.6,N
1521291315.3,286047001.3,N
1521291335.2,286047002.6,N
1521291355.0,286047002.0,N
1521291355.9,286047002.0,N
1521291375.8,286047002.4,N
1521291395.6,286046999.9,N
1521291415.4,286047000.9,N
1521291435.3,286047000.3,N
1521291455.1,286047000.5,N
1521291475.9,286047000.1,N
1521291495.7,286047000.4,N
1521291515.5,286046998.2,N
1521291535.4,286046998.6,N
1521291555.2,286046998.7,N
1521291575.0,286047000.8,N
1521291575.9,286047000.8,N
1521291595.8,286047000.4,N
